Tracking 19651 objects as of 23-Apr-2019
HD Live streaming from Space Station
objects crossing your sky now

THORAD DELTA 1 DEB

Track THORAD DELTA 1 DEB now!
10-day predictions


NORAD ID: 8159
Int'l Code: 1974-089Z
Perigee: 1,348.2 km
Apogee: 1,483.2 km
Inclination: 101.5 °
Period: 114.0 minutes
Semi major axis: 7786 km
RCS: 0.0957 m2 (small)
Launch date: November 15, 1974
Source: United States (US)
Launch site: AIR FORCE WESTERN TEST RANGE (AFWTR)

Note: This is SATELLITE DEBRIS
aabbcc
Your satellite tracking list
Your tracking list is empty




NASA's NSSDC Master Catalog

Two Line Element Set (TLE):
1  8159U 74089Z   19112.59804042 -.00000033  00000-0  65002-4 0  9991
2  8159 101.5386 129.5553 0086704 159.1052 201.3604 12.63495976 28814
Source of the keplerian elements: AFSPC